#timestamp,LO_Frequency,Hit,StdDev 
1550901615.7,286046998.3,N
1550901635.5,286046999.7,N
1550901655.4,286046997.2,N
1550901675.2,286046998.9,N
1550901695.1,286047000.7,N
1550901696.0,286047000.7,N
1550901715.8,286047002.2,N
1550901735.6,286047002.6,N
1550901755.5,286047001.1,N
1550901775.3,286047002.5,N
1550901795.2,286047001.2,N
1550901815.9,286046999.0,N
1550901835.7,286046999.6,N
1550901855.6,286046996.8,N
1550901875.4,286047000.5,N
1550901895.2,286047000.2,N
1550901915.1,286047000.2,N
1550901916.0,286047000.2,N
1550901935.8,286047001.0,N
1550901955.7,286047004.2,N
1550901975.5,286047000.9,N
1550901995.3,286047000.8,N
1550902015.2,286046999.3,N
1550902035.0,286046999.1,N
1550902035.9,286046999.1,N
1550902055.8,286046997.7,N
1550902105.6,286047002.8,E
1550902115.5,286046999.7,N
1550902135.4,286046998.7,P
1550902155.2,286047002.3,P
1550902175.1,286046999.7,N
1550902176.0,286046999.7,N
1550902195.8,286046998.7,N
1550902215.6,286046996.8,N
1550902235.5,286046997.8,N
1550902255.3,286046995.1,Y
1550902275.1,286046997.7,P
1550902295.9,286046995.0,P
1550902315.7,286046996.3,N
1550902335.6,286046994.0,Y
1550902355.4,286046996.6,P
1550902375.2,286047001.1,P
1550902395.1,286046998.7,N
1550902396.0,286046998.7,N
1550902415.8,286046999.2,N
1550902435.7,286046999.4,N
1550902455.5,286046999.3,N
1550902475.3,286046999.4,N
1550902495.2,286046997.7,N
1550902515.0,286046995.0,Y
1550902515.9,286046995.0,P
1550902535.8,286046998.5,N
1550902555.6,286046999.0,N
1550902575.5,286047011.9,Y
1550902595.3,286047002.9,P
1550902615.1,286046999.8,N
1550902635.9,286047002.3,N
1550902655.7,286047004.4,N
1550902675.5,286047004.0,N
1550902695.4,286047003.4,N
1550902715.2,286047003.7,N
1550902735.1,286047003.6,N
1550902736.0,286047003.6,N
1550902755.8,286047003.4,N
1550902775.6,286047006.2,Y
1550902795.5,286047003.0,P
1550902815.3,286047001.9,P
1550902835.2,286047004.4,P
1550902855.9,286047003.3,Y
1550902875.7,286047000.0,P
1550902895.6,286047002.6,N
1550902915.4,286046999.8,N
1550902935.3,286046997.1,N
1550902955.1,286046996.6,N
1550902956.0,286046996.6,N
1550902975.8,286046999.4,N
1550902995.7,286046999.5,N
1550903015.5,286046997.6,N
1550903035.3,286046996.0,N
1550903055.2,286046994.1,N
1550903075.0,286046990.3,Y
1550903075.9,286046990.3,P
1550903095.8,286046991.1,N
1550903115.6,286046989.6,N
1550903135.4,286046990.0,N
1550903155.3,286046989.6,Y
1550903175.1,286046995.1,P
1550903195.9,286046997.6,N
1550903215.7,286046997.6,N
1550903235.5,286046997.6,N
1550903255.4,286046993.7,N
1550903275.2,286046996.0,N
1550903295.0,286046995.1,N
1550903295.9,286046995.1,N
1550903315.8,286046995.4,N
1550903335.6,286046994.2,Y
1550903355.5,286046998.0,P
1550903375.3,286046999.5,N
1550903395.1,286046999.3,N
1550903415.9,286046997.1,N
1550903435.7,286046999.6,N
1550903455.6,286046998.4,N
1550903475.4,286046999.0,N
1550903495.2,286047000.4,N
1550903515.1,286047002.8,N
1550903516.0,286047002.8,N
1550903535.8,286047001.2,N
1550903555.6,286047000.5,N
1550903575.5,286046998.3,N
1550903595.3,286047000.6,N
1550903615.2,286047000.2,N
1550903635.9,286046998.3,N
1550903655.7,286047001.0,N
1550903675.6,286047000.1,N
1550903695.4,286047000.6,N
1550903715.2,286046999.7,N
1550903735.1,286047000.1,N
1550903736.0,286047000.1,N
1550903755.8,286046999.7,N
1550903775.7,286046998.2,N
1550903795.5,286046998.6,N
1550903815.3,286046998.2,N
1550903835.2,286046997.2,N
1550903855.0,286046996.8,N
1550903855.9,286046996.8,N
1550903875.8,286046998.5,N
1550903895.6,286047000.1,N
1550903915.4,286047004.0,N
1550903935.3,286047002.2,N
1550903955.1,286047002.3,N
1550903975.9,286047002.8,N
1550903995.7,286047000.0,N
1550904015.5,286046999.9,N
1550904035.4,286047001.3,N
1550904055.2,286047003.2,N
1550904075.1,286047003.6,N
1550904076.0,286047003.6,N
1550904095.8,286047003.5,N
1550904115.6,286047003.1,N
1550904135.5,286047004.2,N
1550904155.3,286047005.6,N
1550904175.1,286047003.0,N
1550904195.9,286047002.9,N
1550904215.7,286047003.6,N
1550904235.6,286047006.0,N
1550904255.4,286047007.5,N
1550904275.2,286047005.5,N
1550904295.1,286047005.8,N
1550904296.0,286047005.8,N
1550904315.8,286047007.4,N
1550904335.6,286047006.5,N
1550904355.5,286047010.5,Y
1550904375.3,286047006.3,P
1550904395.2,286047006.3,P
1550904415.9,286047004.5,N
1550904435.7,286047004.7,Y
1550904455.6,286047002.8,P
1550904475.4,286047000.0,N
1550904495.3,286047000.0,N
1550904515.1,286046998.7,N
1550904516.0,286046998.7,N
1550904535.8,286047000.0,N
1550904555.7,286047002.6,N
1550904575.5,286047001.6,N
1550904595.3,286047001.7,N
1550904615.2,286047002.2,N
1550904635.0,286047000.1,N
1550904635.9,286047000.1,N
1550904655.8,286047001.0,N
1550904675.6,286047000.6,N
1550904695.4,286047000.3,N
1550904715.3,286047000.0,N
1550904735.1,286047002.4,N
1550904755.8,286047002.3,N
1550904775.7,286047002.3,N
1550904795.5,286047002.2,N
1550904815.4,286047002.5,N
1550904835.2,286047001.9,N
1550904855.0,286047001.2,N
1550904855.9,286047001.2,N
1550904875.8,286047000.4,N
1550904895.6,286047000.7,N
1550904915.5,286047001.1,N
1550904935.3,286046999.4,N
1550904955.1,286046999.3,N
1550904975.9,286046998.7,N
1550904995.7,286047002.1,N
1550905015.5,286047001.5,N
1550905035.4,286047001.6,N
1550905055.2,286047001.9,N
1550905075.1,286047002.1,N
1550905076.0,286047002.1,N
1550905095.8,286047002.5,N
1550905115.6,286047001.7,N
1550905135.5,286047001.5,N
1550905155.3,286047002.2,N
1550905175.1,286047001.9,N
1550905195.9,286047002.5,N
